Location: Baumgartsau
(48.4586°N, 14.0864°E)
Time: 23:19:34
(UTC+00:00)

Cosmos 2173 Rocket - Pass Details

Date: 09 April 2020
Orbit: 946 x 1000 km, 83.0° (Epoch: 30 May)

Event Time Altitude Azimuth Distance (km) Brightness Sun altitude
Rises 22:18:37 0° 351° (N) 3,628 8.1 -32.6°
Reaches altitude 10° 22:21:07 10° 352° (N) 2,681 7.1 -32.7°
Enters shadow 22:26:12 63° 5° (N) 1,058 4.2 -32.9°
